LAN108 SCEL-SCSE

Flight info

Callsign LAN108
Flight time 1h 3m
Altitude 28000
Route DONTI1L DONTI UQ802 KUGAP KUGAP5
Aircraft A320/M-SDE1E2FGHIRWYZ/SB1

Departure

Time 2026-04-17 21:17
Airport Comodoro Arturo Merino Benítez International Airport (SCEL)

Arrival

Time 2026-04-17 22:21
Airport La Florida Airport (SCSE)
Time Latitude Longitude Altitude Speed Heading
2026-04-17 20:44 -33.39593 -70.79219 1565 ft 0 kts 176°
2026-04-17 20:58 -33.39577 -70.79220 1564 ft 2 kts 178°
2026-04-17 20:58 -33.39560 -70.79221 1564 ft 2 kts 178°
2026-04-17 20:59 -33.39544 -70.79221 1561 ft 2 kts 179°
2026-04-17 20:59 -33.39527 -70.79223 1580 ft 2 kts 160°
2026-04-17 20:59 -33.39513 -70.79233 1578 ft 2 kts 134°
2026-04-17 20:59 -33.39504 -70.79248 1578 ft 2 kts 99°
2026-04-17 21:00 -33.39504 -70.79253 1577 ft 0 kts 90°
2026-04-17 21:10 -33.39503 -70.79252 1564 ft 2 kts 89°
2026-04-17 21:11 -33.39501 -70.79204 1564 ft 6 kts 86°
2026-04-17 21:11 -33.39498 -70.79147 1564 ft 9 kts 86°
2026-04-17 21:11 -33.39494 -70.79053 1564 ft 13 kts 88°
2026-04-17 21:11 -33.39491 -70.78942 1565 ft 12 kts 88°
2026-04-17 21:12 -33.39452 -70.78872 1565 ft 10 kts 30°
2026-04-17 21:12 -33.39386 -70.78826 1564 ft 12 kts 30°
2026-04-17 21:12 -33.39312 -70.78796 1564 ft 13 kts
2026-04-17 21:12 -33.39204 -70.78801 1564 ft 19 kts 357°
2026-04-17 21:13 -33.39064 -70.78809 1564 ft 21 kts 357°
2026-04-17 21:13 -33.38918 -70.78817 1564 ft 22 kts 357°
2026-04-17 21:13 -33.38752 -70.78826 1564 ft 25 kts 358°
2026-04-17 21:13 -33.38572 -70.78835 1564 ft 26 kts 358°
2026-04-17 21:14 -33.38387 -70.78844 1564 ft 27 kts 358°
2026-04-17 21:14 -33.38199 -70.78855 1565 ft 27 kts 357°
2026-04-17 21:14 -33.38005 -70.78864 1565 ft 28 kts 358°
2026-04-17 21:14 -33.37808 -70.78875 1565 ft 29 kts 358°
2026-04-17 21:15 -33.37634 -70.78884 1564 ft 18 kts 357°
2026-04-17 21:15 -33.37556 -70.78848 1564 ft 11 kts 58°
2026-04-17 21:15 -33.37546 -70.78765 1564 ft 9 kts 88°
2026-04-17 21:15 -33.37549 -70.78692 1564 ft 8 kts 113°
2026-04-17 21:16 -33.37596 -70.78671 1564 ft 8 kts 178°
2026-04-17 21:16 -33.37652 -70.78670 1565 ft 9 kts 178°
2026-04-17 21:16 -33.37837 -70.78659 1564 ft 58 kts 176°
2026-04-17 21:16 -33.38456 -70.78625 1565 ft 117 kts 177°
2026-04-17 21:17 -33.39433 -70.78574 1580 ft 160 kts 176°
2026-04-17 21:17 -33.40534 -70.78518 2116 ft 160 kts 177°
2026-04-17 21:17 -33.41684 -70.78458 2580 ft 169 kts 178°
2026-04-17 21:17 -33.42842 -70.78396 3148 ft 168 kts 178°
2026-04-17 21:18 -33.44023 -70.78333 3620 ft 172 kts 179°
2026-04-17 21:18 -33.45230 -70.78415 4117 ft 176 kts 188°
2026-04-17 21:18 -33.46429 -70.78757 4597 ft 179 kts 199°
2026-04-17 21:18 -33.47606 -70.79384 4955 ft 193 kts 210°
2026-04-17 21:19 -33.48747 -70.80351 5274 ft 209 kts 223°
2026-04-17 21:19 -33.49763 -70.81683 5615 ft 224 kts 236°
2026-04-17 21:19 -33.50560 -70.83367 5954 ft 241 kts 249°
2026-04-17 21:19 -33.51239 -70.85276 6396 ft 257 kts 254°
2026-04-17 21:20 -33.51572 -70.87430 6876 ft 269 kts 271°
2026-04-17 21:20 -33.51338 -70.89684 7482 ft 274 kts 289°
2026-04-17 21:20 -33.50549 -70.91749 8282 ft 273 kts 306°
2026-04-17 21:20 -33.49326 -70.93435 9132 ft 271 kts 321°
2026-04-17 21:21 -33.47756 -70.94676 9998 ft 271 kts 334°
2026-04-17 21:21 -33.46028 -70.95650 10509 ft 282 kts 335°
2026-04-17 21:21 -33.44199 -70.96682 10859 ft 298 kts 335°
2026-04-17 21:21 -33.42272 -70.97775 11202 ft 313 kts 334°
2026-04-17 21:22 -33.40953 -70.98524 11549 ft 319 kts 334°
2026-04-17 21:22 -33.38928 -70.99638 12286 ft 321 kts 336°
2026-04-17 21:22 -33.36871 -71.00708 13014 ft 323 kts 336°
2026-04-17 21:22 -33.34793 -71.01759 13745 ft 325 kts 336°
2026-04-17 21:23 -33.32700 -71.02812 14389 ft 328 kts 336°
2026-04-17 21:23 -33.30586 -71.03878 14962 ft 332 kts 335°
2026-04-17 21:23 -33.28443 -71.04970 15517 ft 337 kts 335°
2026-04-17 21:23 -33.26274 -71.06080 16099 ft 341 kts 334°
2026-04-17 21:24 -33.24080 -71.07204 16639 ft 346 kts 334°
2026-04-17 21:24 -33.21849 -71.08346 17161 ft 351 kts 333°
2026-04-17 21:24 -33.19565 -71.09437 17684 ft 357 kts 338°
2026-04-17 21:24 -33.17188 -71.10365 18214 ft 362 kts 338°
2026-04-17 21:25 -33.14782 -71.11303 18644 ft 365 kts 337°
2026-04-17 21:25 -33.12351 -71.12252 19115 ft 369 kts 336°
2026-04-17 21:25 -33.09900 -71.13208 19633 ft 372 kts 335°
2026-04-17 21:25 -33.07427 -71.14169 20100 ft 375 kts 335°
2026-04-17 21:26 -33.04941 -71.15132 20593 ft 377 kts 335°
2026-04-17 21:26 -33.02437 -71.16099 21108 ft 379 kts 335°
2026-04-17 21:26 -32.99918 -71.17073 21613 ft 382 kts 334°
2026-04-17 21:26 -32.97383 -71.18055 22114 ft 384 kts 334°
2026-04-17 21:27 -32.94761 -71.18839 22602 ft 395 kts 343°
2026-04-17 21:27 -32.91971 -71.19063 23083 ft 406 kts 350°
2026-04-17 21:27 -32.89176 -71.19116 23527 ft 410 kts 350°
2026-04-17 21:27 -32.86316 -71.19174 23898 ft 412 kts 350°
2026-04-17 21:28 -32.83437 -71.19236 24273 ft 415 kts 350°
2026-04-17 21:28 -32.80542 -71.19295 24649 ft 417 kts 350°
2026-04-17 21:28 -32.77631 -71.19347 25009 ft 419 kts 350°
2026-04-17 21:28 -32.74698 -71.19394 25363 ft 422 kts 350°
2026-04-17 21:29 -32.71758 -71.19441 25697 ft 424 kts 350°
2026-04-17 21:29 -32.68804 -71.19492 26034 ft 426 kts 350°
2026-04-17 21:29 -32.65835 -71.19547 26373 ft 428 kts 350°
2026-04-17 21:29 -32.62853 -71.19606 26703 ft 429 kts 350°
2026-04-17 21:30 -32.59859 -71.19665 26993 ft 431 kts 350°
2026-04-17 21:30 -32.56844 -71.19724 27305 ft 433 kts 350°
2026-04-17 21:30 -32.53827 -71.19781 27609 ft 435 kts 350°
2026-04-17 21:30 -32.50803 -71.19836 27899 ft 437 kts 350°
2026-04-17 21:31 -32.47767 -71.19891 28008 ft 432 kts 350°
2026-04-17 21:31 -32.44825 -71.19930 28030 ft 415 kts 350°
2026-04-17 21:31 -32.39056 -71.20024 28032 ft 414 kts 349°
2026-04-17 21:32 -32.33346 -71.20133 28032 ft 414 kts 349°
2026-04-17 21:32 -32.27579 -71.20247 28034 ft 415 kts 349°
2026-04-17 21:33 -32.21806 -71.20352 28025 ft 415 kts 350°
2026-04-17 21:33 -32.16036 -71.20457 28022 ft 415 kts 350°
2026-04-17 21:34 -32.10265 -71.20558 28018 ft 415 kts 350°
2026-04-17 21:35 -32.01607 -71.20712 28014 ft 415 kts 350°
2026-04-17 21:35 -31.95835 -71.20821 28016 ft 415 kts 350°
2026-04-17 21:36 -31.90058 -71.20922 28011 ft 415 kts 350°
2026-04-17 21:36 -31.84280 -71.21025 28016 ft 415 kts 350°
2026-04-17 21:37 -31.78536 -71.21131 28011 ft 416 kts 350°
2026-04-17 21:37 -31.72720 -71.20973 28016 ft 420 kts 354°
2026-04-17 21:38 -31.66860 -71.20536 28018 ft 422 kts 355°
2026-04-17 21:38 -31.61002 -71.20099 28016 ft 422 kts 354°
2026-04-17 21:39 -31.55132 -71.19723 28024 ft 422 kts 354°
2026-04-17 21:39 -31.49261 -71.19377 28034 ft 421 kts 354°
2026-04-17 21:39 -31.46354 -71.19208 27771 ft 415 kts 354°
2026-04-17 21:40 -31.43519 -71.19036 27304 ft 411 kts 354°
2026-04-17 21:40 -31.40667 -71.18862 26852 ft 407 kts 354°
2026-04-17 21:40 -31.37850 -71.18689 26403 ft 404 kts 354°
2026-04-17 21:40 -31.35060 -71.18518 25958 ft 400 kts 354°
2026-04-17 21:41 -31.32290 -71.18350 25496 ft 398 kts 354°
2026-04-17 21:41 -31.29548 -71.18186 25040 ft 392 kts 354°
2026-04-17 21:41 -31.26831 -71.18024 24569 ft 390 kts 354°
2026-04-17 21:41 -31.24117 -71.17864 24096 ft 389 kts 355°
2026-04-17 21:42 -31.21424 -71.17704 23611 ft 388 kts 355°
2026-04-17 21:42 -31.18732 -71.17543 23056 ft 386 kts 355°
2026-04-17 21:42 -31.16060 -71.17380 22581 ft 383 kts 355°
2026-04-17 21:42 -31.13414 -71.17215 22114 ft 379 kts 355°
2026-04-17 21:43 -31.10789 -71.17056 21629 ft 376 kts 356°
2026-04-17 21:43 -31.08177 -71.16900 21162 ft 374 kts 356°
2026-04-17 21:43 -31.05618 -71.16749 20702 ft 371 kts 356°
2026-04-17 21:43 -31.03051 -71.16596 20244 ft 368 kts 357°
2026-04-17 21:44 -31.00493 -71.16446 19793 ft 366 kts 357°
2026-04-17 21:44 -30.97953 -71.16296 19340 ft 365 kts 357°
2026-04-17 21:44 -30.95421 -71.16145 18882 ft 364 kts 358°
2026-04-17 21:44 -30.92900 -71.15991 18507 ft 360 kts 358°
2026-04-17 21:45 -30.90411 -71.15841 18093 ft 358 kts 358°
2026-04-17 21:45 -30.87939 -71.15693 17685 ft 354 kts 358°
2026-04-17 21:45 -30.85491 -71.15546 17299 ft 349 kts 359°
2026-04-17 21:45 -30.83078 -71.15400 16921 ft 345 kts 359°
2026-04-17 21:46 -30.80694 -71.15256 16547 ft 341 kts 359°
2026-04-17 21:46 -30.78341 -71.15116 16172 ft 338 kts 359°
2026-04-17 21:46 -30.76005 -71.14980 15809 ft 334 kts 359°
2026-04-17 21:46 -30.73691 -71.14843 15446 ft 330 kts 360°
2026-04-17 21:47 -30.71412 -71.14709 15091 ft 328 kts 360°
2026-04-17 21:47 -30.69144 -71.14576 14729 ft 325 kts 360°
2026-04-17 21:47 -30.66895 -71.14443 14377 ft 322 kts
2026-04-17 21:47 -30.64667 -71.14308 14028 ft 319 kts
2026-04-17 21:48 -30.62453 -71.14177 13666 ft 316 kts
2026-04-17 21:48 -30.60268 -71.14048 13309 ft 312 kts
2026-04-17 21:48 -30.58111 -71.13919 12966 ft 308 kts
2026-04-17 21:48 -30.55985 -71.13791 12634 ft 304 kts
2026-04-17 21:49 -30.53886 -71.13666 12307 ft 300 kts
2026-04-17 21:49 -30.51814 -71.13541 11982 ft 297 kts
2026-04-17 21:49 -30.49788 -71.13418 11664 ft 294 kts
2026-04-17 21:49 -30.47723 -71.13292 11335 ft 292 kts
2026-04-17 21:50 -30.45728 -71.13173 11020 ft 290 kts
2026-04-17 21:50 -30.43714 -71.13055 10693 ft 288 kts
2026-04-17 21:50 -30.41744 -71.12939 10437 ft 281 kts
2026-04-17 21:50 -30.39800 -71.12827 10088 ft 278 kts
2026-04-17 21:51 -30.37877 -71.12716 9758 ft 275 kts
2026-04-17 21:51 -30.35979 -71.12606 9439 ft 272 kts
2026-04-17 21:51 -30.34087 -71.12493 9145 ft 272 kts
2026-04-17 21:51 -30.32188 -71.12378 8857 ft 273 kts
2026-04-17 21:52 -30.30293 -71.12264 8544 ft 273 kts
2026-04-17 21:52 -30.28394 -71.12153 8250 ft 272 kts
2026-04-17 21:52 -30.26497 -71.12041 7949 ft 273 kts
2026-04-17 21:52 -30.24598 -71.11929 7654 ft 273 kts
2026-04-17 21:53 -30.22693 -71.11801 7356 ft 274 kts
2026-04-17 21:53 -30.20794 -71.11643 7057 ft 274 kts
2026-04-17 21:53 -30.18922 -71.11476 6766 ft 273 kts
2026-04-17 21:53 -30.17029 -71.11303 6468 ft 273 kts
2026-04-17 21:54 -30.15152 -71.11135 6155 ft 268 kts
2026-04-17 21:54 -30.13313 -71.10973 5861 ft 262 kts
2026-04-17 21:54 -30.11574 -71.10479 5578 ft 255 kts 24°
2026-04-17 21:54 -30.10044 -71.09486 5307 ft 249 kts 31°
2026-04-17 21:55 -30.08580 -71.08457 5029 ft 244 kts 31°
2026-04-17 21:55 -30.07142 -71.07453 4755 ft 239 kts 31°
2026-04-17 21:55 -30.05724 -71.06468 4477 ft 238 kts 31°
2026-04-17 21:55 -30.04306 -71.05485 4251 ft 238 kts 30°
2026-04-17 21:56 -30.02780 -71.04771 4205 ft 238 kts 11°
2026-04-17 21:56 -30.01135 -71.04628 4206 ft 237 kts 354°
2026-04-17 21:56 -29.99534 -71.05064 4142 ft 236 kts 336°
2026-04-17 21:56 -29.98154 -71.06004 4018 ft 226 kts 319°
2026-04-17 21:57 -29.97120 -71.07306 3895 ft 215 kts 302°
2026-04-17 21:57 -29.96435 -71.08783 3705 ft 204 kts 295°
2026-04-17 21:57 -29.95813 -71.10250 3267 ft 204 kts 295°
2026-04-17 21:57 -29.95185 -71.11718 2814 ft 204 kts 295°
2026-04-17 21:58 -29.94561 -71.13170 2410 ft 200 kts 295°
2026-04-17 21:58 -29.93953 -71.14583 2029 ft 195 kts 296°
2026-04-17 21:58 -29.93315 -71.16065 1715 ft 232 kts 296°
2026-04-17 21:58 -29.92526 -71.17908 1573 ft 271 kts 295°
2026-04-17 21:59 -29.91696 -71.19833 2410 ft 265 kts 296°
2026-04-17 21:59 -29.90896 -71.21721 2963 ft 254 kts 295°
2026-04-17 21:59 -29.90153 -71.23443 2954 ft 230 kts 295°
2026-04-17 21:59 -29.89429 -71.25089 2970 ft 230 kts 296°
2026-04-17 22:00 -29.88694 -71.26731 2972 ft 230 kts 296°
2026-04-17 22:00 -29.87891 -71.28332 2959 ft 231 kts 308°
2026-04-17 22:00 -29.86654 -71.29498 2987 ft 233 kts 332°
2026-04-17 22:00 -29.85199 -71.30328 3007 ft 233 kts 332°
2026-04-17 22:01 -29.83767 -71.31210 3002 ft 233 kts 329°
2026-04-17 22:01 -29.82371 -71.32161 2997 ft 233 kts 327°
2026-04-17 22:01 -29.81008 -71.33173 2999 ft 234 kts 326°
2026-04-17 22:01 -29.79624 -71.34159 3007 ft 234 kts 328°
2026-04-17 22:02 -29.78230 -71.35127 3009 ft 234 kts 328°
2026-04-17 22:02 -29.76835 -71.36097 3007 ft 234 kts 328°
2026-04-17 22:02 -29.75457 -71.37060 3008 ft 234 kts 328°
2026-04-17 22:02 -29.74065 -71.38034 3008 ft 234 kts 328°
2026-04-17 22:03 -29.72698 -71.38988 3005 ft 229 kts 327°
2026-04-17 22:03 -29.71335 -71.39935 3004 ft 229 kts 328°
2026-04-17 22:03 -29.69925 -71.40769 3006 ft 230 kts 339°
2026-04-17 22:03 -29.68401 -71.41326 3010 ft 230 kts 343°
2026-04-17 22:04 -29.66858 -71.41831 3010 ft 230 kts 343°
2026-04-17 22:04 -29.65313 -71.42327 3006 ft 231 kts 343°
2026-04-17 22:04 -29.63767 -71.42824 3005 ft 231 kts 343°
2026-04-17 22:04 -29.62194 -71.43154 2997 ft 230 kts
2026-04-17 22:05 -29.60696 -71.42578 3007 ft 229 kts 38°
2026-04-17 22:05 -29.59717 -71.41183 3008 ft 226 kts 72°
2026-04-17 22:05 -29.59568 -71.39430 3010 ft 221 kts 105°
2026-04-17 22:05 -29.60285 -71.37917 3008 ft 217 kts 139°
2026-04-17 22:06 -29.61595 -71.37100 3004 ft 216 kts 171°
2026-04-17 22:06 -29.63085 -71.37139 3010 ft 216 kts 196°
2026-04-17 22:06 -29.64418 -71.37930 3017 ft 217 kts 213°
2026-04-17 22:06 -29.65669 -71.38905 3013 ft 217 kts 213°
2026-04-17 22:07 -29.66918 -71.39878 3021 ft 216 kts 213°
2026-04-17 22:07 -29.68171 -71.40850 3478 ft 220 kts 212°
2026-04-17 22:07 -29.69544 -71.41600 4206 ft 223 kts 194°
2026-04-17 22:07 -29.71093 -71.41862 4926 ft 228 kts 186°
2026-04-17 22:08 -29.72687 -71.42057 5607 ft 233 kts 186°
2026-04-17 22:08 -29.74337 -71.42266 5930 ft 241 kts 187°
2026-04-17 22:08 -29.76010 -71.42482 5998 ft 242 kts 187°
2026-04-17 22:08 -29.77139 -71.42628 6005 ft 241 kts 187°
2026-04-17 22:09 -29.78791 -71.42842 6008 ft 241 kts 187°
2026-04-17 22:09 -29.81021 -71.42852 6009 ft 241 kts 165°
2026-04-17 22:09 -29.82057 -71.42385 6011 ft 242 kts 149°
2026-04-17 22:09 -29.83328 -71.41128 6007 ft 242 kts 130°
2026-04-17 22:10 -29.84447 -71.39675 6009 ft 243 kts 131°
2026-04-17 22:10 -29.85574 -71.38229 6009 ft 243 kts 131°
2026-04-17 22:10 -29.86705 -71.36785 6011 ft 243 kts 131°
2026-04-17 22:10 -29.87840 -71.35337 6010 ft 243 kts 131°
2026-04-17 22:11 -29.88972 -71.33892 6012 ft 243 kts 131°
2026-04-17 22:11 -29.90106 -71.32444 6008 ft 243 kts 131°
2026-04-17 22:11 -29.91243 -71.30995 6010 ft 244 kts 131°
2026-04-17 22:11 -29.92381 -71.29541 6009 ft 244 kts 131°
2026-04-17 22:12 -29.93504 -71.28100 6010 ft 244 kts 131°
2026-04-17 22:12 -29.94641 -71.26642 6009 ft 244 kts 131°
2026-04-17 22:12 -29.95779 -71.25184 6008 ft 245 kts 131°
2026-04-17 22:12 -29.96917 -71.23725 6010 ft 245 kts 131°
2026-04-17 22:13 -29.98129 -71.22353 6007 ft 245 kts 140°
2026-04-17 22:13 -29.99428 -71.21084 6009 ft 245 kts 139°
2026-04-17 22:13 -30.00720 -71.19807 6008 ft 245 kts 139°
2026-04-17 22:13 -30.02007 -71.18531 6011 ft 239 kts 139°
2026-04-17 22:14 -30.03230 -71.17321 6006 ft 223 kts 139°
2026-04-17 22:14 -30.04393 -71.16169 6008 ft 219 kts 139°
2026-04-17 22:14 -30.05529 -71.15002 5967 ft 219 kts 132°
2026-04-17 22:14 -30.06404 -71.13572 5649 ft 218 kts 114°
2026-04-17 22:15 -30.06877 -71.11930 5361 ft 215 kts 98°
2026-04-17 22:15 -30.06933 -71.10224 5104 ft 212 kts 83°
2026-04-17 22:15 -30.06582 -71.08575 4841 ft 211 kts 67°
2026-04-17 22:15 -30.05866 -71.07101 4570 ft 211 kts 52°
2026-04-17 22:16 -30.04843 -71.05907 4312 ft 210 kts 36°
2026-04-17 22:16 -30.03598 -71.05075 4056 ft 209 kts 21°
2026-04-17 22:16 -30.02196 -71.04658 3794 ft 209 kts
2026-04-17 22:16 -30.00752 -71.04691 3557 ft 205 kts 349°
2026-04-17 22:17 -29.99403 -71.05138 3291 ft 198 kts 334°
2026-04-17 22:17 -29.98267 -71.05904 3021 ft 184 kts 320°
2026-04-17 22:17 -29.97381 -71.06899 2784 ft 171 kts 307°
2026-04-17 22:17 -29.96773 -71.07983 2594 ft 152 kts 296°
2026-04-17 22:18 -29.96330 -71.09028 2399 ft 142 kts 295°
2026-04-17 22:18 -29.95892 -71.10049 2206 ft 141 kts 295°
2026-04-17 22:18 -29.95457 -71.11063 2013 ft 140 kts 296°
2026-04-17 22:18 -29.95033 -71.12051 1834 ft 139 kts 295°
2026-04-17 22:19 -29.94608 -71.13048 1658 ft 139 kts 295°
2026-04-17 22:19 -29.94179 -71.14035 1465 ft 137 kts 295°
2026-04-17 22:19 -29.93746 -71.15005 1301 ft 136 kts 296°
2026-04-17 22:19 -29.93337 -71.15997 1143 ft 137 kts 294°
2026-04-17 22:20 -29.92923 -71.16986 952 ft 137 kts 294°
2026-04-17 22:20 -29.92497 -71.17968 742 ft 137 kts 295°
2026-04-17 22:20 -29.92075 -71.18948 573 ft 136 kts 294°
2026-04-17 22:20 -29.91681 -71.19883 466 ft 107 kts 298°
2026-04-17 22:21 -29.91483 -71.20339 457 ft 28 kts 297°
2026-04-17 22:21 -29.91427 -71.20446 456 ft 6 kts 249°
2026-04-17 22:21 -29.91455 -71.20407 456 ft 12 kts 116°
2026-04-17 22:21 -29.91486 -71.20335 458 ft 8 kts 116°
2026-04-17 22:22 -29.91508 -71.20284 460 ft 6 kts 120°
2026-04-17 22:22 -29.91550 -71.20275 463 ft 7 kts 201°
2026-04-17 22:22 -29.91585 -71.20292 467 ft 4 kts 203°
2026-04-17 22:22 -29.91617 -71.20312 468 ft 9 kts 206°
2026-04-17 22:23 -29.91668 -71.20341 467 ft 3 kts 206°
2026-04-17 22:23 -29.91669 -71.20342 467 ft 0 kts 206°